Location: Krakow
(50.0830°N, 19.9170°E)
Time: 14:31:09
(UTC+01:00)

Transit 2A - Pass Details

Date: 10 December 2023
Orbit: 600 x 953 km, 66.7° (Epoch: 22 February)

Event Time Altitude Azimuth Distance (km) Brightness Sun altitude
Rises 16:31:45 0° 272° (W) 3,046 10.3 -8.2°
Reaches altitude 10° 16:34:59 10° 294° (WNW) 2,071 8.9 -8.7°
Maximum altitude 16:37:51 16° 333° (NNW) 1,661 7.8 -9.1°
Drops below altitude 10° 16:40:39 10° 12° (NNE) 1,992 7.8 -9.5°
Enters shadow 16:42:03 - 24° (NNE) 2,361 8.1 -9.7°
